Regional Weather Roundup
Issued by NWS

Home | Current Version | Previous Version | Text Only | Print | Product List | Glossary Off
Versions: 1 2 3 4 5 6 7 8 9 10 11 12 13 14 15 16 17 18 19 20 21 22 23 24 25 26 27 28 29 30 31 32 33 34 35 36 37 38 39 40 41 42 43 44 45 46 47 48 49 50

000
ASUS43 KDTX 270510
RWRMI
MICHIGAN HOURLY REGIONAL WEATHER ROUNDUP
NATIONAL WEATHER SERVICE DETROIT/PONTIAC MI
100 AM EDT SAT AUG 27 2016

NOTE: "FAIR" INDICATES FEW OR NO CLOUDS BELOW 12,000 FEET WITH NO
SIGNIFICANT WEATHER AND/OR OBSTRUCTION TO VISIBILITY.

MIZ047>049-052>055-059>063-066>070-074>076-081>083-270600-
SOUTHEAST LOWER MICHIGAN

CITY           SKY/WX    TMP DP  RH WIND       PRES   REMARKS
ADRIAN         CLOUDY    68  66  93 NE3       30.15F
ALMA           PTCLDY    60  60 100 CALM      30.16F
ANN ARBOR      PTCLDY    64  64 100 CALM      30.15S FOG
BAD AXE        FOG       63  63  99 CALM      30.16S VSB 3/4
CARO           CLEAR     61  60  98 CALM      30.15S
DETROIT CITY   PTCLDY    73  67  81 CALM      30.14F
DETROIT        MOCLDY    73  66  78 CALM      30.15F
FLINT          PTCLDY    66  62  87 CALM      30.16F
GROSSE ILE     CLEAR     70  67  90 CALM      30.13F
HILLSDALE      MOCLDY    66  64  93 CALM      30.16S
HOWELL         CLOUDY    67  64  90 CALM      30.16S

CITY           SKY/WX    TMP DP  RH WIND       PRES   REMARKS
JACKSON        CLOUDY    68  66  93 CALM      30.15F
LAMBERTVILLE   PTCLDY    69  66  92 CALM      30.14F
LANSING        MOCLDY    66  60  81 CALM      30.16S
LAPEER         FAIR      61  60  97 CALM      30.16F FOG
MASON          MOCLDY    64  62  92 CALM      30.16F
MONROE         CLOUDY    66  65  97 N9        30.13F
MT. CLEMENS    PTCLDY    69  64  84 CALM      30.13F
PONTIAC        PTCLDY    68  64  87 CALM      30.16S
PORT HURON     FOG       61  61 100 CALM      30.16S VSB 1/2
TRI CITIES     CLEAR     66  62  87 NW3       30.15F
MIDLAND        FAIR      60  60  98 CALM      30.15S
TROY           PTCLDY    74  59  60 CALM      30.17F
SAGINAW HB     CLEAR     64  59  82 CALM      30.14F
$$
MIZ043>046-050>051-056>058-064>065-071>073-077>080-270600-
SOUTHWEST LOWER MICHIGAN

CITY           SKY/WX    TMP DP  RH WIND       PRES   REMARKS
BATTLE CREEK   PTCLDY    66  62  87 NE5       30.16S
BENTON HARBOR  MOCLDY    67  58  72 E3        30.12F
BIG RAPIDS     CLEAR     58  56  92 CALM      30.17S
COLDWATER      MOCLDY    68  67  97 CALM      30.15S
FREMONT        FAIR      60  57  91 CALM      30.17R
HOLLAND        PTCLDY    65  59  81 NE3       30.15F
GRAND RAPIDS   PTCLDY    63  59  87 CALM      30.16F
IONIA          FAIR      60  57  91 CALM      30.15F
KALAMAZOO      CLOUDY    67  60  78 CALM      30.14F
LUDINGTON      PTCLDY    57  57 100 CALM      30.15S
MARSHALL       CLEAR     68  64  88 CALM      30.15F
MOUNT PLEASANT CLEAR     60  59  94 CALM      30.16F
MUSKEGON       CLEAR     63  59  87 NE3       30.16S
SOUTH HAVEN    PTCLDY    65  61  85 NE6       30.13F
$$
MIZ016>042-270600-
NORTHERN LOWER MICHIGAN

CITY           SKY/WX    TMP DP  RH WIND       PRES   REMARKS
ALPENA         CLOUDY    61  57  87 CALM      30.19S
BEAVER ISLAND  CLOUDY    61  59  93 CALM      30.18R
BELLAIRE       CLEAR     57  55  95 CALM      30.19R
CADILLAC       CLOUDY    53  52  95 CALM      30.18F
CHARLEVOIX     MOCLDY    61  59  92 S5        30.21R
FRANKFORT      CLOUDY    58  56  92 CALM      30.16F
GAYLORD        CLOUDY    58  53  84 CALM      30.20R
GRAYLING       CLEAR     53  52  96 CALM      30.20S
HARBOR SPRINGS MOCLDY    60  59  95 N3        30.18S
HOUGHTON LAKE  CLEAR     59  55  87 NE5       30.19S
MANISTEE       CLOUDY    56  56 100 E3        30.15F
OSCODA         MOCLDY    66  63  90 NE5       30.16S
PELLSTON       PTCLDY    57  54  89 CALM      30.19R
ROGERS CITY    PTCLDY    59  56  91 CALM      30.20R
TRAVERSE CITY  CLOUDY    61  56  83 CALM      30.17R
$$
MIZ007>008-015-270600-
EASTERN UPPER MICHIGAN

CITY           SKY/WX    TMP DP  RH WIND       PRES   REMARKS
KINROSS        CLOUDY    61  55  81 N5        30.19S
MACKINAC ISLAN MOCLDY    61  55  80 NE6       30.18R
NEWBERRY       MOCLDY    57  55  95 CALM      30.18S
S. S. MARIE    MOCLDY    57  54  89 CALM      30.18S
$$
MIZ004>006-011>014-085-270600-
CENTRAL UPPER MICHIGAN

CITY           SKY/WX    TMP DP  RH WIND       PRES   REMARKS
MANISTIQUE     CLOUDY    60  58  91 CALM      30.18R
ESCANABA       CLOUDY    64  59  83 NE6       30.15F
MENOMINEE      CLOUDY   N/A N/A N/A NW3       30.16S
SAWYER-GWINN   CLOUDY    53  51  95 CALM      30.18S
$$
MIZ001>003-009>011-084-270600-
WESTERN UPPER MICHIGAN

CITY           SKY/WX    TMP DP  RH WIND       PRES   REMARKS
IRON MOUNTAIN  CLOUDY    58  53  84 CALM      30.17R
HOUGHTON       CLOUDY    51  49  92 CALM      30.16R
COPPER HARBOR    N/A     55  53  93 SW6       30.16R
IRONWOOD       PTCLDY    51  50  96 CALM      30.17S
$$

ABBREVIATIONS USED IN REMARKS
   TC - TEMPERATURE IN CELSIUS
  WCI - WIND CHILL INDEX
   HX - HEAT INDEX
  VSB - VISIBILITY




USA.gov is the U.S. government's official web portal to all federal, state and local government web resources and services.